Date,TemperatureHighF,TemperatureAvgF,TemperatureLowF,DewpointHighF,DewpointAvgF,DewpointLowF,HumidityHigh,HumidityAvg,HumidityLow,PressureMaxIn,PressureMinIn,WindSpeedMaxMPH,WindSpeedAvgMPH,GustSpeedMaxMPH,PrecipitationSumIn
2013-2-1,50.4,39.7,33.3,44.3,36.8,31.3,93,89,78,30.30,30.19,4,0,9,0.00
2013-2-2,50.8,37.4,28.7,44.2,34.4,26.4,93,89,78,30.28,30.21,1,0,4,0.00
2013-2-3,46.5,40.9,34.1,41.7,38.1,31.9,94,90,81,30.29,30.18,2,0,8,0.00
2013-2-4,52.2,44.2,39.3,44.0,40.3,37.2,93,86,70,30.19,29.90,0,0,4,0.00
2013-2-5,51.3,44.2,41.1,46.2,41.5,38.7,94,90,79,30.05,29.91,4,0,14,0.37
2013-2-6,53.1,45.2,40.7,44.8,40.5,37.0,93,84,64,30.08,29.82,5,0,18,0.16
2013-2-7,45.9,39.4,32.6,39.6,36.0,30.0,93,88,74,30.06,29.93,1,0,9,0.08
2013-2-8,41.4,35.3,31.9,35.4,32.3,29.6,92,89,77,30.23,30.07,4,0,7,0.00
2013-2-9,44.1,38.8,34.2,39.0,35.6,31.8,93,88,77,30.25,30.20,0,0,0,0.02
2013-2-10,43.6,40.7,38.7,38.3,37.3,35.8,93,88,80,30.28,30.24,4,0,8,0.00
2013-2-11,46.5,42.2,38.9,40.5,38.1,36.1,92,86,72,30.36,30.25,0,0,2,0.02
2013-2-12,53.0,45.9,41.8,47.6,43.1,40.1,94,90,78,30.45,30.36,1,0,7,0.06
2013-2-13,49.9,46.2,44.1,46.0,43.6,42.4,94,91,83,30.45,30.39,2,0,8,0.02
2013-2-14,55.8,45.5,36.6,47.9,41.3,33.6,94,86,70,30.50,30.40,4,0,10,0.00
2013-2-15,49.4,38.7,33.3,44.4,36.2,30.7,94,91,82,30.40,30.18,1,0,7,0.00
2013-2-16,49.9,39.6,31.5,45.5,37.3,29.5,95,92,83,30.26,30.18,2,0,7,0.04
2013-2-17,46.1,39.3,33.2,40.5,35.0,30.3,94,85,65,30.25,30.03,0,0,5,0.00
2013-2-18,46.8,37.7,30.6,37.0,32.8,28.2,92,83,62,30.04,29.70,4,0,11,0.02
2013-2-19,46.8,40.3,36.2,40.5,36.7,33.8,93,87,75,29.95,29.60,5,0,15,0.04
2013-2-20,48.1,40.4,35.3,39.5,36.4,33.0,92,86,67,30.08,29.95,4,0,12,0.41
2013-2-21,42.7,38.8,35.3,39.7,36.4,33.2,94,91,86,30.19,30.08,4,0,10,0.20
2013-2-22,43.6,40.3,36.2,40.6,38.0,33.8,94,91,84,30.18,29.92,5,1,16,0.41
2013-2-23,46.1,37.5,32.3,40.3,34.7,29.9,93,90,77,30.41,30.06,4,0,11,0.16
2013-2-24,53.7,39.7,31.2,41.0,34.6,29.1,93,83,60,30.41,30.08,4,0,9,0.00
2013-2-25,48.8,41.5,35.5,39.2,36.4,32.3,91,82,60,30.35,30.05,7,1,18,0.10
2013-2-26,51.3,39.8,30.3,38.5,33.7,27.7,91,80,57,30.36,30.19,2,0,8,0.00
2013-2-27,47.9,42.8,35.9,42.7,38.8,32.8,92,86,75,30.27,30.20,6,1,12,0.08
2013-2-28,53.5,48.3,44.1,50.8,46.4,41.7,95,93,90,30.43,30.19,5,1,12,0.43